www.pogodaiklimat.ru

Погода и климат >> Архив погоды >> Франция >> Виши-Шармей


ПОГОДА в Виши-Шармей

  • Прогноз погоды в Виши-Шармей
  • Монитор погоды в Виши-Шармей

АРХИВ ПОГОДЫ в Виши-Шармей

Время (UTC), дата Ветер
(напр.,м/с)
 
Видим.   Явления Облачность Т
(С)
Тd
(С)
f
(%)
Тe
(С)
Тes
(С)
Комфортность P
(гПа)
Po
(гПа)
Тmin
(С)
Tmax
(С)
R
(мм)
R24
(мм)
S
(см)
13 13.09 СВ 2 20 км н/о +29.0 +11.1 33 +30 +30 жарко 1028.1 999.6
14 13.09 СВ 2 20 км н/о +29.3 +11.4 33 +30 +30 жарко 1027.5 999.0
15 13.09 СВ 3
{7}
20 км н/о +29.9 +11.9 33 +31 +31 жарко 1026.7 998.3 0
16 13.09 СВ 2 20 км н/о +29.6 +12.1 34 +30 +30 жарко 1026.4 998.0
17 13.09 В 2 20 км н/о +29.3 +12.3 35 +30 +30 жарко 1026.7 998.2
18 13.09 СВ 1
{5}
20 км н/о +26.7 +12.7 42 +28 +28 жарко 1027.0 998.3 +9.0 +30.0 0
19 13.09 СВ 1 20 км н/о +24.7 +12.9 48 +27 +27 жарко 1027.2 998.3
20 13.09 С 1 20 км н/о +22.6 +13.1 55 +26 +26 жарко 1027.7 998.6
21 13.09 С 1
{3}
20 км н/о +19.0 +13.4 70 +22 +22 комфорт 1028.5 999.0 0
22 13.09 С 1 20 км н/о +18.6 +13.5 72 +21 +21 комфорт 1028.4 998.9
23 13.09 С 1 20 км н/о +17.1 +13.0 77 +18 +18 1028.5 998.8
00 14.09 С 1
{4}
20 км н/о +16.7 +13.6 82 +18 +18 1028.7 999.0 0
01 14.09 С 1 20 км н/о +17.2 +13.3 78 +19 +19 1028.3 998.6
02 14.09 штиль 0 20 км н/о +14.1 +12.3 89 +14 +14 1028.4 998.4
03 14.09 штиль 0
{1}
20 км н/о +12.8 +11.7 93 +12 +12 1028.5 998.4 0
04 14.09 штиль 0 20 км н/о +11.4 +10.6 95 +11 +11 1028.6 998.3
05 14.09 штиль 0 20 км н/о +11.0 +10.4 96 +10 +10 1028.6 998.3
06 14.09 Ю 1
{2}
20 км н/о +11.7 +11.1 96 +12 +12 1029.0 998.7 +10.7 +26.6 0
07 14.09 С 1 20 км н/о +15.0 +12.9 87 +16 +16 1029.0 999.1
08 14.09 СВ 1 20 км н/о +19.5 +13.4 68 +23 +23 комфорт 1028.6 999.2
09 14.09 Ю 1
{3}
19 км н/о +21.1 +13.5 62 +24 +24 комфорт 1028.3 999.0 0
10 14.09 С 1 20 км н/о +23.5 +13.9 55 +26 +26 жарко 1027.4 998.4
11 14.09 С 1 20 км н/о +25.2 +14.0 50 +28 +28 жарко 1026.5 997.7
12 14.09 СЗ 1
{5}
20 км н/о +27.6 +13.9 43 +30 +30 жарко 1025.8 997.2 0
13 14.09 СЗ 1 20 км н/о +29.7 +11.7 33 +30 +30 жарко 1024.7 996.3
14 14.09 В 1 20 км н/о +30.1 +11.1 31 +30 +30 жарко 1024.1 995.8
15 14.09 СВ 2
{5}
20 км н/о +30.4 +10.4 29 +30 +30 жарко 1023.1 994.8 0
16 14.09 СВ 1 20 км н/о +29.6 +11.2 32 +30 +30 жарко 1023.1 994.8
17 14.09 СВ 2 20 км н/о +28.9 +11.0 33 +29 +29 жарко 1023.2 994.8
18 14.09 С 1
{3}
20 км н/о +25.4 +11.9 43 +27 +27 жарко 1023.8 995.1 +11.7 +31.0 0
19 14.09 штиль 0 20 км н/о +21.0 +12.2 57 +23 +23 комфорт 1024.7 995.5
20 14.09 штиль 0 20 км н/о +19.2 +12.5 65 +20 +20 1025.2 995.8
21 14.09 штиль 0
{1}
20 км н/о +17.2 +11.9 71 +17 +17 1025.2 995.6 0
22 14.09 штиль 0 20 км н/о +16.8 +12.1 74 +17 +17 1025.1 995.5
23 14.09 Ю 1 20 км н/о +16.5 +12.3 76 +18 +18 1024.9 995.3
00 15.09 ЮЗ 1
{3}
20 км н/о +15.9 +11.5 75 +17 +17 1025.1 995.4 0
01 15.09 штиль 0 20 км н/о +13.9 +11.1 83 +14 +14 1025.0 995.1
02 15.09 штиль 0 20 км н/о +13.9 +11.2 84 +14 +14 1025.0 995.1
03 15.09 штиль 0
{1}
20 км н/о +12.5 +10.7 89 +12 +12 1025.2 995.1 0
04 15.09 штиль 0 20 км н/о +12.0 +10.6 91 +11 +11 1025.0 994.9
05 15.09 ЮЗ 1 20 км н/о +11.9 +11.0 94 +13 +13 1025.2 995.1
06 15.09 ЮЗ 1
{2}
20 км н/о +12.6 +11.8 95 +13 +13 1025.0 995.0 +11.7 +25.4 0
07 15.09 Ю 1 20 км н/о +17.0 +14.1 83 +18 +18 1024.9 995.3
08 15.09 Ю 2 20 км н/о +20.7 +14.3 67 +24 +24 комфорт 1024.4 995.2
09 15.09 ЮВ 1
{4}
20 км н/о +23.5 +14.2 56 +26 +26 жарко 1023.9 995.0 0
10 15.09 ЮВ 2 20 км н/о +26.6 +14.4 47 +29 +29 жарко 1023.1 994.5
11 15.09 В 1 20 км н/о +29.7 +11.2 32 +30 +30 жарко 1022.2 993.9
12 15.09 Ю 1
{4}
20 км н/о +31.2 +9.4 26 +31 +31 жарко 1021.5 993.3 0
13 15.09 ЮВ 1 20 км н/о +32.4 +9.8 25 +32 +32 жарко 1020.5 992.5
14 15.09 С 1 20 км н/о +32.5 +10.5 26 +32 +32 жарко 1019.9 991.9
15 15.09 С 1
{5}
20 км н/о +32.7 +10.7 26 +32 +32 жарко 1019.3 991.3 0
16 15.09 С 1 20 км н/о +32.1 +10.2 26 +32 +32 жарко 1018.8 990.8
17 15.09 СВ 2 20 км н/о +30.9 +11.3 30 +31 +31 жарко 1018.8 990.7
18 15.09 С 1
{4}
20 км н/о +27.4 +11.8 38 +29 +29 жарко 1019.0 990.6 +12.6 +33.2 0
19 15.09 штиль 0 20 км н/о +23.2 +12.5 51 +26 +26 жарко 1019.9 991.1
20 15.09 штиль 0 20 км н/о +20.5 +12.5 60 +22 +22 комфорт 1020.5 991.4
21 15.09 штиль 0
{1}
20 км н/о +18.5 +12.5 68 +19 +19 1020.8 991.5 0
22 15.09 штиль 0 20 км н/о +17.1 +12.2 73 +17 +17 1021.0 991.5
23 15.09 штиль 0 20 км н/о +16.9 +12.2 74 +17 +17 1021.0 991.5
00 16.09 штиль 0
{2}
20 км н/о +16.0 +11.8 76 +16 +16 1021.1 991.5 0
01 16.09 Ю 1 20 км н/о +15.0 +11.2 78 +16 +16 1021.0 991.3
02 16.09 штиль 0 20 км н/о +14.6 +11.0 79 +14 +14 1020.9 991.2
03 16.09 З 1
{1}
20 км н/о +13.7 +11.0 84 +15 +15 1020.7 990.9 0
04 16.09 штиль 0 20 км н/о +13.6 +10.9 84 +13 +13 1020.7 990.9
05 16.09 штиль 0 20 км н/о +13.3 +11.0 86 +13 +13 1021.0 991.1
06 16.09 Ю 1
{3}
20 км н/о +13.8 +12.0 89 +15 +15 1020.9 991.1 +12.7 +27.4 0
07 16.09 Ю 1 20 км н/о +18.2 +13.5 74 +20 +20 1020.5 991.2
08 16.09 Ю 2 20 км н/о +21.8 +13.4 59 +25 +25 комфорт 1020.3 991.3
09 16.09 ЮВ 1
{4}
20 км н/о +25.6 +13.1 46 +28 +28 жарко 1020.2 991.6 0
10 16.09 СВ 1 19 км н/о +28.0 +11.9 37 +29 +29 жарко 1019.7 991.3
11 16.09 СВ 1 20 км н/о +28.8 +11.4 34 +29 +29 жарко 1019.1 990.8
12 16.09 СВ 2
{5}
19 км н/о +30.3 +10.8 30 +30 +30 жарко 1018.2 990.1 0
13 16.09 С 1 18 км н/о +31.4 +10.7 28 +31 +31 жарко 1017.5 989.5
14 16.09 С 2 20 км н/о +32.0 +10.7 27 +32 +32 жарко 1016.8 988.9
15 16.09 С 2
{5}
20 км н/о +32.2 +10.8 27 +32 +32 жарко 1016.3 988.4 0
16 16.09 СВ 2 20 км н/о +32.0 +11.2 28 +32 +32 жарко 1015.9 988.0
17 16.09 С 2 20 км н/о +30.9 +11.3 30 +31 +31 жарко 1015.9 987.9
18 16.09 С 1
{4}
20 км н/о +28.3 +11.4 35 +29 +29 жарко 1016.6 988.3 +13.8 +32.7 0
19 16.09 С 1 20 км н/о +24.7 +12.6 47 +27 +27 жарко 1017.5 988.9
20 16.09 С 1 20 км н/о +21.8 +10.9 50 +24 +24 комфорт 1018.1 989.2
21 16.09 штиль 0
{2}
20 км н/о +18.9 +10.5 58 +20 +20 1018.9 989.7 0
22 16.09 штиль 0 20 км н/о +17.3 +10.4 64 +17 +17 1019.2 989.8
23 16.09 штиль 0 20 км н/о +16.1 +9.7 66 +16 +16 1019.4 989.9
00 17.09 штиль 0
{1}
20 км н/о +14.5 +9.5 72 +14 +14 1019.5 989.8 0
01 17.09 штиль 0 20 км н/о +14.2 +8.8 70 +14 +14 1019.5 989.8
02 17.09 штиль 0 20 км н/о +12.9 +8.8 76 +13 +13 1019.4 989.5
03 17.09 СЗ 1
{1}
20 км н/о +12.3 +8.2 76 +13 +13 1019.4 989.5 0
04 17.09 штиль 0 20 км н/о +10.9 +7.6 80 +10 +10 1019.7 989.6
05 17.09 штиль 0 20 км н/о +10.6 +7.7 82 +10 +10 1019.8 989.7
06 17.09 штиль 0
{1}
20 км н/о +10.7 +7.6 81 +10 +10 1020.0 989.9 +10.3 +28.3 0
07 17.09 штиль 0 20 км н/о +15.4 +9.3 67 +15 +15 1019.6 990.0
08 17.09 СВ 1 20 км н/о +19.2 +8.2 49 +21 +21 комфорт 1019.9 990.6
09 17.09 ЮВ 1
{2}
19 км н/о +23.0 +9.0 41 +24 +24 комфорт 1019.3 990.4
10 17.09 С 1 20 км н/о +23.8 +8.6 38 +24 +24 комфорт 1019.0 990.2
11 17.09 С 1 20 км н/о +26.1 +8.1 32 +26 +26 жарко 1018.0 989.5
12 17.09 С 2
{7}
20 км н/о +27.7 +5.9 25 +27 +27 жарко 1017.4 989.0 0
13 17.09 С 2 20 км н/о +28.0 +4.3 22 +27 +27 жарко 1016.9 988.5
14 17.09 С 2 20 км н/о +28.3 +3.2 20 +27 +27 жарко 1016.4 988.1
15 17.09 С 2
{7}
20 км н/о +28.7 +3.5 20 +27 +27 жарко 1015.9 987.6 0
16 17.09 СВ 3 20 км н/о +28.5 +3.3 20 +27 +27 жарко 1015.7 987.4
17 17.09 С 2 20 км н/о +27.4 +4.4 23 +26 +26 жарко 1015.6 987.2
18 17.09 С 2
{7}
20 км н/о +24.6 +9.3 38 +25 +25 комфорт 1016.1 987.5 +10.8 +29.0 0
19 17.09 С 3 20 км н/о +21.8 +12.9 57 +24 +24 комфорт 1017.4 988.5
20 17.09 С 2 20 км н/о +20.2 +12.4 61 +23 +23 комфорт 1018.0 988.9
21 17.09 С 1
{5}
20 км н/о +18.5 +12.0 66 +20 +20 1018.6 989.3 0
22 17.09 С 1 20 км н/о +17.1 +11.8 71 +18 +18 1018.6 989.2
23 17.09 С 1 20 км н/о +16.2 +11.4 73 +17 +17 1018.7 989.2
00 18.09 С 1
{4}
20 км н/о +16.1 +11.0 72 +17 +17 1018.9 989.4 0
01 18.09 С 1 20 км н/о +15.9 +10.4 70 +17 +17 1018.7 989.2
02 18.09 С 1 20 км н/о +15.5 +10.0 70 +16 +16 1018.6 989.0
03 18.09 С 2
{5}
20 км н/о +14.8 +10.0 73 +15 +15 1018.9 989.2 0
04 18.09 С 2 20 км н/о +15.3 +9.6 69 +15 +15 1018.8 989.2
05 18.09 С 1 20 км н/о +14.6 +9.4 71 +15 +15 1019.0 989.3
06 18.09 С 2
{4}
20 км н/о +14.1 +9.1 72 +14 +14 1019.4 989.7 +14.1 +24.5 0
07 18.09 С 2 20 км н/о +14.4 +9.0 70 +14 +14 1019.6 989.9
08 18.09 С 2 20 км н/о +15.1 +9.0 67 +15 +15 1020.0 990.3
09 18.09 С 1
{6}
20 км н/о +15.4 +8.8 65 +16 +16 1020.0 990.4 0
10 18.09 С 2 20 км н/о +17.4 +8.8 57 +18 +18 1019.9 990.5
11 18.09 С 3 20 км н/о +18.3 +8.3 52 +19 +19 1019.8 990.5
12 18.09 СВ 1
{6}
19 км н/о +20.1 +7.8 45 +22 +22 комфорт 1019.7 990.5 0
13 18.09 В 1 20 км н/о +20.9 +7.8 43 +23 +23 комфорт 1019.1 990.0
14 18.09 СВ 2 20 км н/о +24.7 +5.5 29 +24 +24 комфорт 1018.1 989.4
15 18.09 С 3
{9}
20 км н/о +25.1 +4.2 26 +24 +24 комфорт 1017.5 988.8 0
16 18.09 С 3 20 км н/о +25.0 +3.6 25 +24 +24 комфорт 1017.5 988.8
17 18.09 СВ 3 20 км н/о +23.7 +4.1 28 +23 +23 комфорт 1017.8 989.0
18 18.09 СВ 2
{6}
20 км н/о +21.3 +4.8 34 +22 +22 комфорт 1018.5 989.5 +14.1 +25.3 0
19 18.09 С 1 20 км н/о +18.2 +3.3 37 +19 +19 1019.9 990.5
20 18.09 С 1 20 км н/о +16.9 +3.2 40 +18 +18 1020.7 991.2
21 18.09 С 1
{4}
20 км н/о +15.5 +3.6 45 +17 +17 1021.6 991.9 0
22 18.09 СВ 1 20 км н/о +11.6 +3.9 59 +13 +13 1022.3 992.2
23 18.09 штиль 0 20 км н/о +9.8 +3.7 66 +9 +9 1022.6 992.3
00 19.09 СВ 1
{2}
20 км н/о +8.9 +3.3 68 +9 +9 1022.5 992.1 0
01 19.09 С 1 20 км н/о +7.9 +2.6 69 +8 +8 1022.7 992.2
02 19.09 С 1 20 км н/о +6.4 +2.1 74 +7 +7 1023.0 992.3
03 19.09 С 1
{2}
20 км н/о +6.6 +1.9 72 +7 +7 1022.9 992.2 0
04 19.09 штиль 0 20 км н/о +5.5 +2.0 78 +5 +5 1022.8 992.0
05 19.09 штиль 0 20 км н/о +5.0 +1.8 80 +4 +4 1023.4 992.5
06 19.09 ЮВ 1
{1}
20 км н/о +5.2 +2.4 82 +5 +5 1023.8 992.9 +4.4 +21.0 0
07 19.09 СВ 1 20 км н/о +10.0 +3.0 62 +10 +10 1023.5 993.2
08 19.09 С 2 20 км н/о +12.8 +3.4 53 +13 +13 1023.4 993.4
09 19.09 С 3
{8}
20 км н/о +15.3 +3.4 45 +15 +15 1023.3 993.5 0
10 19.09 СВ 3 19 км н/о +17.3 +3.2 39 +17 +17 1023.0 993.4
11 19.09 С 2 20 км н/о +19.4 +2.7 33 +20 +20 1022.3 993.0
12 19.09 С 3
{10}
19 км н/о +21.5 +1.7 27 +21 +21 комфорт 1021.5 992.4
13 19.09 СВ 3 19 км н/о +22.8 -2.1 19 +22 +22 комфорт 1021.0 992.0
14 19.09 СВ 4 19 км н/о +22.9 -2.7 18 +21 +21 комфорт 1020.8 991.8
15 19.09 СВ 3
{11}
20 км н/о +23.1 -2.5 18 +22 +22 комфорт 1020.6 991.6 0
16 19.09 СВ 3 20 км н/о +22.4 -1.7 20 +21 +21 комфорт 1020.6 991.6
17 19.09 СВ 2 20 км н/о +21.3 -1.3 22 +21 +21 комфорт 1020.8 991.7
18 19.09 СВ 1
{7}
20 км н/о +19.4 -0.6 26 +21 +21 комфорт 1021.5 992.2 +5.2 +23.4 0
19 19.09 СВ 1 20 км н/о +16.8 +0.4 33 +18 +18 1022.3 992.7
20 19.09 С 1 20 км н/о +12.4 +0.8 45 +13 +13 1023.2 993.1
21 19.09 СЗ 1
{2}
20 км н/о +10.4 +2.0 56 +11 +11 1023.8 993.5 0
22 19.09 СВ 1 20 км н/о +9.2 +2.1 61 +10 +10 1023.8 993.4
23 19.09 СЗ 1 20 км н/о +13.0 +2.2 48 +14 +14 1023.2 993.2
00 20.09 С 1
{4}
20 км н/о +13.0 +2.5 49 +13 +13 1023.0 993.0 0
01 20.09 СЗ 1 20 км н/о +10.1 +2.7 60 +11 +11 1023.1 992.8
02 20.09 СВ 1 20 км н/о +9.0 +2.5 64 +10 +10 1023.0 992.6
03 20.09 штиль 0
{3}
20 км н/о +7.7 +2.8 71 +7 +7 1023.0 992.4 0
04 20.09 штиль 0 20 км н/о +5.7 +2.3 79 +5 +5 1022.9 992.1
05 20.09 штиль 0 20 км н/о +4.2 +1.7 84 +3 +3 1022.8 991.9
06 20.09 штиль 0
{1}
20 км н/о +4.2 +2.1 86 +3 +3 1023.1 992.1 +3.7 +19.3 0
07 20.09 Ю 1 20 км н/о +9.3 +4.1 70 +10 +10 1022.5 992.1
08 20.09 Ю 1 19 км н/о +13.5 +4.9 56 +15 +15 1022.2 992.3
09 20.09 С 1 20 км н/о +15.2 +4.5 49 +17 +17 1021.8 992.1
10 20.09 С 1 20 км н/о +18.6 +3.6 37 +20 +20 1021.0 991.6
11 20.09 С 1 20 км н/о +21.2 +4.3 33 +21 +21 комфорт 1019.9 990.8

 

Местоположение метеостанции Виши-Шармей (Франция): широта 46.17 долгота 3.40 высота над уровнем моря 251 м.

В архиве по умолчанию представлена погода в Виши-Шармей за последнюю неделю. Архивные данные за месяц целиком и за предыдущие месяцы, начиная с января 2011 года, Вы можете получить, выбрав интересующий диапазон дат из раскрывающегося списка и нажав кнопку "Ввод!".


*Определитесь, кто Вы:
робот инопланетянин человек

Внимание! Время в таблицах - всемирное. Для получения местного времени необходимо прибавить поправку, которая равна 1 ч.

Смотрите также архив погоды в соседних городах и на ближайших метеорологических станциях:

Погода в Клермон-Ферране (Франция) (47 км)
Погода в Сен-Яне (Франция) (55 км)
Погода в Ле Соваже (Франция) (80 км)
Погода в Невере (Франция) (95 км)
Погода в Сен-Этьене (Франция) (100 км)
Погода в Маконе (Франция) (109 км)
Погода в Сен-Лоране (Франция) (112 км)
Погода в Аворе (Франция) (114 км)
Погода в Ле-Пюи (Франция) (125 км)
Погода в Бурже (Франция) (127 км)

Пояснения к столбцам:

Ветер - указаны скорость ветра в м/с - средняя за 10 мин, порывы в срок и между сроками (в фигурных скобках) и направление, откуда дует ветер: С - северный, СВ - северо-восточный, В - восточный, ЮВ - юго-восточный, Ю - южный, ЮЗ - юго-западный, З - западный, СЗ - северо-западный.
Видимость - горизонтальная дальность видимости в метрах или километрах. При видимости от 1 до 10 км при отсутствии осадков обычно наблюдается дымка, при ухудшении видимости до 1 км и менее - туман. В сухую погоду видимость может ухудшаться дымом, пылью или мглою.
Явления - указаны атмосферные явления, наблюдавшиеся в срок или в последний час перед сроком; фигурными скобками обозначены явления, наблюдавшиеся между сроками (за 1-3 часа до срока); квадратными скобками обозначены град или гололедные отложения с указанием их диаметра в мм.
Облачность - указаны через наклонную черту общая и нижняя облачность в баллах и высота нижней границы облаков в метрах; квадратными скобками обозначены формы облаков: Ci - перистые, Cs - перисто-слоистые, Cc - перисто-кучевые, Ac - высококучевые, As - высокослоистые, Sc - слоисто-кучевые, Ns - слоисто-дождевые, Cu - кучевые, Cb - кучево-дождевые. Подробнее классификацию облаков см. в Атласе облаков (PDF).
T - Температура воздуха - температура, измеренная на высоте 2 м над землей.
Td - Температура точки росы - температура, при понижении до которой содержащийся в воздухе водяной пар достигнет насыщения.
f - Относительная влажность воздуха - влажноcть воздуха, измеренная на высоте 2 м над землей.
Te - Эффективная температура - температура, которую ощущает одетый по сезону человек в тени. Характеристика душности погоды. При расчете учитывается влияние влажности воздуха и скорости ветра на теплоощущения человека.
Tes - Эффективная температура на солнце - температура, которую ощущает человек, с поправкой на солнечный нагрев. Характеристика знойности погоды. Зависит от высоты солнца над горизонтом, облачности и скорости ветра. Ночью, в пасмурную погоду, а также при ветре 12 м/с и более поправка равна нулю.
P - Атмосферное давление - приведенное к уровню моря атмосферное давление.
Po - Атмосферное давление - измеренное на уровне метеостанции атмосферное давление.
Tmin - Минимальная температура - минимум температуры воздуха на высоте 2 м над землей.
Tmax - Максимальная температура - максимум температуры воздуха на высоте 2 м над землей.
R - Количество осадков - Количество выпавших осадков за период времени, мм. При наведении курсора мыши на число - период времени, за который выпало указанное количество осадков.
R24 - Количество осадков - Количество выпавших осадков за 24 часа, мм.
S - Снежный покров - Высота снежного покрова, см. При наведении курсора мыши на число - состояние снежного покрова и степень покрытия местности в баллах.